[[{"header":{"parameterUnit":"m.s-1","parameterCategory":1,"la1":30.2991,"la2":30.254,"lo1":-89.0895,"lo2":-89.0444,"dy":0.0017,"dx":0.0017,"nx":28,"ny":28,"refTime":"2023-11-20T09:00:00:Z","depth":0,"parameterNumber":2,"parameterNumberName":"U-component_of_WINDS"},"data":[0,0,0,0,0,0,0,0,0,0,0,0,0,0,0,0,0,0,0,0,0,0,0,0,0,0,0,0,0,0,0,0,0,0,0,0,0,0,0,0,0,0,0,0,0,0,0,0,0,0,0,0,0,0,0,0,0,0,-0.4489,-0.449,0,-0.4609,-0.461,-0.4611,-0.4682,-0.4683,-0.4683,-0.4683,-0.4806,-0.4809,-0.4812,0,0,0,0,0,0,0,0,0,0,0,0,0,-0.4321,-0.4324,-0.4489,-0.449,-0.4492,-0.4608,-0.461,-0.4612,-0.4682,-0.4683,-0.4683,-0.4683,-0.4805,-0.4809,-0.4812,0,0,0,0,0,0,0,0,0,0,0,0,0,-0.4413,-0.4325,-0.4488,-0.4541,-0.4547,-0.4608,-0.461,-0.4612,-0.4682,-0.4683,-0.4683,-0.4683,-0.4804,-0.4808,-0.4813,-0.4831,0,0,-0.4826,-0.4828,0,0,0,0,0,0,0,0,-0.4407,-0.4419,-0.4532,-0.4537,-0.4544,-0.4631,-0.4596,-0.4685,-0.4682,-0.4631,-0.4683,-0.4684,-0.4747,-0.4757,-0.4778,-0.4837,-0.4842,-0.4827,-0.4829,-0.4831,-0.4833,0,0,0,0,0,0,0,-0.4401,-0.4414,-0.4536,-0.4533,-0.4541,-0.4559,-0.4572,-0.4613,-0.4685,-0.4635,-0.4641,-0.4654,-0.4751,-0.4773,-0.4781,-0.4844,-0.4827,-0.4831,-0.4833,-0.4835,-0.4924,-0.4923,0,0,0,0,0,0,-0.4386,-0.4408,-0.4532,-0.454,-0.4476,-0.4561,-0.4576,-0.4603,-0.4685,-0.4698,-0.4653,-0.4657,-0.4766,-0.4776,-0.4786,-0.4813,-0.4831,-0.4835,-0.4838,-0.4924,-0.4924,-0.4923,0,0,0,0,0,0,-0.4382,-0.4397,-0.4528,-0.4476,-0.4494,-0.4564,-0.4593,-0.4605,-0.4627,-0.4698,-0.4712,-0.4663,-0.4766,-0.478,-0.4819,-0.4818,-0.4837,-0.4842,-0.4924,-0.4924,-0.4924,-0.4867,0,0,0,0,0,0,-0.4377,-0.4395,-0.4403,-0.4475,-0.4496,-0.4559,-0.4593,-0.4607,-0.4635,-0.4641,-0.4711,-0.4723,-0.4768,-0.4812,-0.4824,-0.4825,-0.4845,-0.4925,-0.4924,-0.4924,-0.4869,-0.4864,-0.486,0,0,0,0,0,-0.4371,-0.4382,-0.4403,-0.4417,-0.4507,-0.4558,-0.457,-0.4621,-0.4635,-0.4643,-0.4688,-0.4721,-0.4816,-0.4816,-0.4829,-0.4832,-0.4925,-0.4924,-0.4924,-0.4871,-0.4865,-0.486,0,0,0,0,0,0,-0.4307,-0.4392,-0.4416,-0.4451,-0.4497,-0.457,-0.4582,-0.4613,-0.4657,-0.466,-0.4721,-0.4737,-0.477,-0.4805,-0.4803,-0.4854,-0.4874,-0.4876,-0.483,-0.4825,-0.4821,-0.4812,-0.4849,0,0,0,0,0,-0.4297,-0.4332,-0.4404,-0.4428,-0.445,-0.4512,-0.4536,-0.4571,-0.4621,-0.4641,-0.469,-0.4737,-0.4778,-0.4803,-0.4845,-0.4874,-0.4891,-0.4883,-0.4878,-0.4874,-0.4875,-0.4894,-0.4891,-0.4921,-0.4921,-0.4921,0,0,-0.4277,-0.4328,-0.4346,-0.4416,-0.4456,-0.449,-0.4528,-0.4562,-0.4589,-0.4646,-0.4687,-0.4724,-0.4781,-0.4815,-0.4833,-0.4846,-0.4871,-0.4874,-0.487,-0.4873,-0.4893,-0.489,-0.4887,-0.492,-0.4921,-0.4921,0,0,-0.4257,-0.4299,-0.4323,-0.4362,-0.4422,-0.4463,-0.4469,-0.4538,-0.4564,-0.4606,-0.465,-0.4682,-0.4751,-0.479,-0.4818,-0.4813,-0.4845,-0.4825,-0.4802,-0.4819,-0.4817,-0.4815,-0.4813,-0.4812,-0.4826,-0.4825,-0.4825,0,-0.4225,-0.4278,-0.4332,-0.4364,-0.4394,-0.4447,-0.4472,-0.4508,-0.4578,-0.4597,-0.461,-0.4697,-0.4739,-0.4784,-0.4782,-0.4804,-0.4812,-0.4817,-0.4813,-0.4812,-0.4811,-0.481,-0.4809,-0.4823,-0.4823,-0.4823,-0.4823,0,-0.4235,-0.4271,-0.4283,-0.4349,-0.438,-0.4409,-0.4467,-0.4492,-0.4524,-0.4564,-0.4605,-0.4658,-0.4711,-0.4724,-0.4756,-0.4773,-0.4779,-0.4801,-0.4823,-0.4804,-0.4804,-0.4804,-0.4819,-0.482,-0.482,-0.4821,0,0,-0.4179,-0.4274,-0.4277,-0.4308,-0.4377,-0.4407,-0.4437,-0.4489,-0.4509,-0.4556,-0.4583,-0.464,-0.4661,-0.4694,-0.4731,-0.4745,-0.4738,-0.4767,-0.4769,-0.4759,-0.476,-0.4742,-0.4741,-0.4759,-0.4759,-0.4759,-0.4755,0,-0.4169,-0.4227,-0.4276,-0.4315,-0.435,-0.4401,-0.4428,-0.4473,-0.4511,-0.4546,-0.4588,-0.4627,-0.4653,-0.4673,-0.469,-0.4735,-0.4739,-0.4736,-0.4785,-0.4786,-0.4769,-0.4741,-0.4722,-0.4715,-0.4755,-0.4755,-0.4755,0,-0.4166,-0.421,-0.4253,-0.4319,-0.4335,-0.4358,-0.4409,-0.4441,-0.4494,-0.4521,-0.4557,-0.4595,-0.463,-0.4648,-0.4697,-0.4694,-0.4718,-0.4743,-0.4744,-0.475,-0.4769,-0.4746,-0.4714,-0.4713,-0.4756,-0.4756,-0.4756,0,-0.4121,-0.4191,-0.4225,-0.425,-0.4327,-0.4342,-0.4376,-0.4429,-0.4457,-0.4501,-0.452,-0.4568,-0.4594,-0.4631,-0.4681,-0.469,-0.4725,-0.4748,-0.4748,-0.4747,-0.4753,-0.4752,-0.4724,-0.4768,-0.4768,-0.4768,-0.4768,0,-0.4105,-0.4129,-0.4206,-0.4227,-0.4255,-0.4312,-0.4338,-0.4376,-0.4423,-0.4452,-0.45,-0.4527,-0.4592,-0.4626,-0.4666,-0.47,-0.4712,-0.4734,-0.4745,-0.473,-0.4727,-0.4746,-0.4748,-0.4768,-0.4768,-0.4768,-0.4768,0,-0.4059,-0.4111,-0.4152,-0.4223,-0.4241,-0.4259,-0.4319,-0.4341,-0.4382,-0.4419,-0.4431,-0.4494,-0.4537,-0.4591,-0.4652,-0.4678,-0.4709,-0.4724,-0.4691,-0.4697,-0.4694,-0.4693,-0.4677,-0.4678,-0.472,-0.472,-0.472,0,-0.4046,-0.4065,-0.4137,-0.416,-0.4192,-0.4228,-0.4257,-0.4313,-0.4341,-0.4402,-0.4417,-0.4464,-0.4504,-0.4571,-0.4623,-0.4669,-0.4686,-0.4677,-0.4694,-0.4678,-0.4686,-0.4684,-0.4686,-0.4673,-0.4672,-0.4672,-0.4671,0,-0.4016,-0.4041,-0.408,-0.4128,-0.416,-0.4201,-0.4244,-0.426,-0.4325,-0.4354,-0.4398,-0.4429,-0.4491,-0.4537,-0.459,-0.4624,-0.4659,-0.4666,-0.4668,-0.4654,-0.4633,-0.4644,-0.4679,-0.4666,-0.4667,-0.4667,-0.4667,-0.4667,-0.3986,-0.4006,-0.406,-0.4102,-0.4139,-0.4178,-0.4203,-0.4246,-0.4284,-0.4338,-0.4369,-0.4413,-0.4465,-0.454,-0.4573,-0.4608,-0.4621,-0.4624,-0.4625,-0.4625,-0.4621,-0.4628,-0.4618,-0.4618,-0.4618,-0.4618,-0.4619,0,-0.3959,-0.3996,-0.4034,-0.4092,-0.4125,-0.4154,-0.4203,-0.4228,-0.4266,-0.4312,-0.435,-0.4401,-0.4446,-0.4501,-0.4549,-0.4567,-0.4583,-0.4577,-0.4577,-0.4584,-0.4607,-0.4599,-0.4563,-0.4563,-0.4563,-0.4563,-0.4563,-0.4563,-0.3949,-0.3984,-0.4015,-0.4069,-0.4106,-0.4149,-0.4174,-0.421,-0.4247,-0.4301,-0.4339,-0.4374,-0.4424,-0.4476,-0.4518,-0.4533,-0.4549,-0.4538,-0.4558,-0.4578,-0.4582,-0.4587,-0.4581,-0.4541,-0.4541,-0.4532,-0.4532,-0.4532]},{"header":{"parameterUnit":"m.s-1","parameterCategory":1,"la1":30.2991,"la2":30.254,"lo1":-89.0895,"lo2":-89.0444,"dy":0.0017,"dx":0.0017,"nx":28,"ny":28,"refTime":"2023-11-20T09:00:00:Z","depth":0,"parameterNumber":3,"parameterNumberName":"V-component_of_WINDS"},"data":[0,0,0,0,0,0,0,0,0,0,0,0,0,0,0,0,0,0,0,0,0,0,0,0,0,0,0,0,0,0,0,0,0,0,0,0,0,0,0,0,0,0,0,0,0,0,0,0,0,0,0,0,0,0,0,0,0,0,7.2586,7.2587,0,7.2705,7.2706,7.2707,7.27,7.2698,7.2697,7.2695,7.2813,7.2817,7.2822,0,0,0,0,0,0,0,0,0,0,0,0,0,7.2351,7.2355,7.2586,7.2587,7.2589,7.2704,7.2706,7.2708,7.27,7.2698,7.2696,7.2694,7.2811,7.2817,7.2822,0,0,0,0,0,0,0,0,0,0,0,0,0,7.2459,7.2356,7.2585,7.2599,7.2602,7.2704,7.2706,7.2708,7.2701,7.2698,7.2696,7.2693,7.2809,7.2816,7.2823,7.2919,0,0,7.2845,7.2848,0,0,0,0,0,0,0,0,7.2453,7.2468,7.2596,7.2598,7.2601,7.2685,7.2666,7.2779,7.2701,7.2663,7.2695,7.2692,7.2772,7.2782,7.281,7.2924,7.2929,7.2845,7.285,7.2853,7.2855,0,0,0,0,0,0,0,7.2446,7.2463,7.2633,7.2597,7.2601,7.2599,7.2611,7.2688,7.273,7.2666,7.2666,7.268,7.2773,7.2803,7.2812,7.2931,7.2845,7.2851,7.2856,7.2859,7.3133,7.3135,0,0,0,0,0,0,7.2436,7.2457,7.2629,7.2636,7.252,7.2605,7.2619,7.2661,7.273,7.2738,7.2682,7.268,7.2792,7.2804,7.2817,7.2935,7.2853,7.2859,7.2863,7.313,7.3133,7.3136,0,0,0,0,0,0,7.2431,7.2451,7.2624,7.2547,7.2568,7.2612,7.2659,7.2664,7.2694,7.2742,7.2749,7.2705,7.2791,7.2807,7.2894,7.2939,7.2863,7.2869,7.3126,7.3131,7.3135,7.3172,0,0,0,0,0,0,7.2424,7.2449,7.2486,7.2547,7.2573,7.27,7.2661,7.2669,7.2707,7.2705,7.2765,7.2773,7.279,7.2884,7.2901,7.2947,7.2875,7.3122,7.3128,7.3133,7.3167,7.3177,7.3186,0,0,0,0,0,7.2415,7.249,7.2488,7.2509,7.262,7.2703,7.2717,7.2736,7.2711,7.2748,7.2779,7.2771,7.2931,7.2893,7.2912,7.2961,7.3119,7.3126,7.3133,7.3162,7.3175,7.3185,0,0,0,0,0,0,7.2431,7.2498,7.2497,7.2594,7.2643,7.2702,7.2749,7.2748,7.2805,7.28,7.282,7.2834,7.2922,7.295,7.2906,7.3059,7.3022,7.3033,7.3038,7.305,7.3059,7.3051,7.288,0,0,0,0,0,7.2446,7.2509,7.2564,7.2644,7.2669,7.2705,7.2742,7.2753,7.2804,7.2824,7.2862,7.2911,7.2973,7.3012,7.3072,7.3171,7.3185,7.3214,7.3224,7.3231,7.3241,7.3298,7.3312,7.3159,7.3159,7.3159,0,0,7.2477,7.2521,7.2559,7.2648,7.2688,7.2752,7.2723,7.2791,7.2839,7.2834,7.2921,7.295,7.3006,7.3101,7.3144,7.3127,7.3286,7.324,7.3246,7.3251,7.3306,7.3321,7.3333,7.3163,7.3163,7.3162,0,0,7.2567,7.2606,7.2679,7.272,7.2781,7.2805,7.2823,7.2882,7.2902,7.299,7.2988,7.3045,7.315,7.3191,7.3226,7.3335,7.333,7.3353,7.3403,7.3458,7.3471,7.3481,7.3522,7.3536,7.3363,7.3363,7.3363,0,7.2597,7.2695,7.2716,7.2787,7.2826,7.2827,7.2901,7.2939,7.3016,7.3043,7.3023,7.3158,7.3195,7.3301,7.3328,7.3355,7.3377,7.3347,7.3467,7.3478,7.3489,7.3528,7.3543,7.3365,7.3365,7.3365,7.3364,0,7.2731,7.2799,7.285,7.2927,7.2972,7.3044,7.3076,7.3119,7.3127,7.3153,7.3243,7.3289,7.3358,7.3384,7.3391,7.3491,7.3479,7.3463,7.3426,7.3506,7.3543,7.3558,7.3369,7.3368,7.3367,7.3367,0,0,7.2832,7.2922,7.294,7.2977,7.3045,7.3098,7.3171,7.3241,7.3279,7.3332,7.3394,7.3485,7.3471,7.3511,7.3522,7.3571,7.3657,7.3549,7.3551,7.3569,7.3773,7.3786,7.3803,7.3654,7.3657,7.3659,7.3769,0,7.293,7.306,7.3083,7.3196,7.3261,7.3264,7.3327,7.3376,7.3403,7.3461,7.349,7.3555,7.3531,7.3556,7.3604,7.3636,7.3698,7.3628,7.3712,7.3715,7.3699,7.3822,7.3835,7.3936,7.3783,7.3786,7.3788,0,7.3062,7.3122,7.3243,7.3306,7.3334,7.339,7.3458,7.3513,7.357,7.3586,7.3632,7.3639,7.3714,7.3674,7.3779,7.3732,7.3767,7.3788,7.3793,7.3802,7.3757,7.3835,7.3968,7.3984,7.381,7.3808,7.3807,0,7.3126,7.3236,7.3324,7.3355,7.343,7.347,7.3503,7.3557,7.3599,7.3657,7.3685,7.3751,7.3787,7.3838,7.3863,7.3831,7.3967,7.3929,7.3984,7.3983,7.4012,7.401,7.4154,7.4033,7.4033,7.4033,7.4032,0,7.3234,7.3308,7.3355,7.3408,7.3492,7.3517,7.3599,7.3631,7.368,7.374,7.3745,7.3801,7.383,7.3891,7.391,7.3996,7.4011,7.4027,7.4031,7.4027,7.4026,7.4051,7.4045,7.4037,7.4036,7.4035,7.4034,0,7.332,7.3354,7.345,7.3514,7.3532,7.3592,7.3646,7.3699,7.3727,7.3803,7.3822,7.3865,7.3937,7.3967,7.4054,7.4068,7.4166,7.4164,7.4148,7.415,7.4204,7.4199,7.437,7.4394,7.4256,7.4257,7.4258,0,7.3387,7.3445,7.3517,7.3559,7.3594,7.366,7.3704,7.3731,7.3776,7.3847,7.3891,7.3963,7.4023,7.4138,7.4176,7.4244,7.4245,7.43,7.4255,7.425,7.4248,7.4245,7.4251,7.4309,7.431,7.4311,7.4312,0,7.3504,7.3518,7.3582,7.3653,7.3705,7.3761,7.3816,7.385,7.3885,7.3936,7.4011,7.4057,7.4148,7.4221,7.4291,7.4324,7.4325,7.4326,7.4343,7.434,7.4328,7.4337,7.4172,7.4322,7.4321,7.432,7.432,7.4319,7.3583,7.3636,7.3696,7.3767,7.3812,7.3864,7.3918,7.3953,7.4017,7.4095,7.4106,7.4187,7.4244,7.4339,7.4375,7.4438,7.4424,7.4448,7.4454,7.446,7.4464,7.4318,7.4451,7.4451,7.445,7.445,7.445,0,7.3702,7.3741,7.3807,7.3885,7.3942,7.3939,7.4,7.4047,7.4119,7.4173,7.4232,7.4319,7.439,7.4436,7.4507,7.4549,7.4552,7.4567,7.4565,7.4573,7.4472,7.4451,7.4565,7.4565,7.4565,7.4565,7.4565,7.4565,7.377,7.386,7.3882,7.3995,7.4033,7.4114,7.415,7.4198,7.4241,7.4339,7.4399,7.4429,7.448,7.4556,7.4621,7.4633,7.4659,7.4677,7.4687,7.4592,7.458,7.4569,7.4549,7.4682,7.4682,7.4784,7.4785,7.4785]}]]